Location: Peebles
(55.6412°N, 3.1714°W)
Time: 14:58:48
(UTC+01:00)

Cosmos 2123 Rocket - Pass Details

Date: 26 September 2021
Orbit: 962 x 991 km, 82.9° (Epoch: 17 October)

Event Time Altitude Azimuth Distance (km) Brightness Sun altitude
Rises 22:38:13 0° 347° (NNW) 3,700 7.9 -28.5°
Reaches altitude 10° 22:40:44 10° 345° (NNW) 2,752 7.1 -28.7°
Maximum altitude 22:47:00 70° 264° (W) 1,052 4.1 -29.3°
Enters shadow 22:47:45 64° 222° (SW) 1,095 4.1 -29.4°
